Kenai, AK

7:53 PM AKDT on June 25, 2017 (GMT -0800)
Kenai Municipal

Weather History for PAEN - September, 2013

Change the Weather History Date:

Sunday, September 1, 2013

  Actual Average Record
Temperature  
Mean Temperature 50 °F -  
Max Temperature 55 °F 60 °F 68 °F (1968)
Min Temperature 46 °F 41 °F 30 °F (1987)
Degree Days  
Heating Degree Days 15    
Moisture  
Dew Point 50 °F    
Average Humidity 92    
Maximum Humidity 100    
Minimum Humidity 82    
Precipitation  
Precipitation 0.03 in - - ()
Sea Level Pressure  
Sea Level Pressure 29.80 in    
Wind  
Wind Speed 5 mph (South)    
Max Wind Speed 13 mph    
Max Gust Speed -    
Visibility 10 miles    
Events Rain    
Averages and records for this station are not official NWS values.
T = Trace of Precipitation, MM = Missing Value Source: NWS Daily Summary

Daily Weather History Graph

Daily Weather History Graph

Search for Another Location

Airport or City:

Trip Planner

Search our weather history database for the weather conditions in past years. The results will help you decide how hot, cold, wet, or windy it might be!

Date:

Astronomy

Sep. 01, 2013 Rise Set
Actual Time 6:59 AM AKDT 9:08 PM AKDT
Civil Twilight 6:13 AM AKDT 9:53 PM AKDT
Nautical Twilight 5:13 AM AKDT 10:53 PM AKDT
Astronomical Twilight 3:54 AM AKDT 12:10 AM AKDT
Moon 2:52 AM AKDT (9/1) 7:21 PM AKDT (9/1)
Length of Visible Light 15h 40m
Length of Day
14h 08m
Waning Crescent, 13% of the Moon is Illuminated
Sep 1
Waning Crescent
Sep 5
New
Sep 12
First Quarter
Sep 19
Full
Sep 26
Last Quarter

Hourly Weather History & Observations

Time (AKDT) Temp. Windchill Dew Point Humidity Pressure Visibility Wind Dir Wind Speed Gust Speed Precip Events Conditions
12:53 AM 51.1 °F - 46.0 °F 83% 29.84 in 10.0 mi SSE 4.6 mph - N/A   Partly Cloudy
1:53 AM 50.0 °F - 46.9 °F 89% 29.85 in 10.0 mi SSE 3.5 mph - N/A   Overcast
2:53 AM 50.0 °F - 46.9 °F 89% 29.85 in 10.0 mi SSE 4.6 mph - N/A   Overcast
3:53 AM 50.0 °F - 46.0 °F 86% 29.84 in 10.0 mi SSE 5.8 mph - N/A   Overcast
4:53 AM 50.0 °F - 46.0 °F 86% 29.84 in 10.0 mi SSE 4.6 mph - N/A   Overcast
5:40 AM 48.2 °F - 46.4 °F 93% 29.83 in 10.0 mi ESE 3.5 mph - N/A   Overcast
5:53 AM 48.0 °F - 45.0 °F 89% 29.83 in 10.0 mi ESE 3.5 mph - N/A   Mostly Cloudy
6:15 AM 46.4 °F 45.2 °F 44.6 °F 93% 29.82 in 10.0 mi ESE 3.5 mph - N/A   Mostly Cloudy
6:53 AM 48.9 °F - 46.0 °F 90% 29.83 in 10.0 mi Calm Calm - N/A   Overcast
7:53 AM 50.0 °F - 46.0 °F 86% 29.82 in 10.0 mi SE 4.6 mph - N/A   Overcast
8:53 AM 51.1 °F - 46.9 °F 86% 29.82 in 10.0 mi South 5.8 mph - N/A   Overcast
9:53 AM 53.1 °F - 50.0 °F 89% 29.82 in 10.0 mi SSW 8.1 mph - N/A   Overcast
10:23 AM 53.6 °F - 50.0 °F 88% 29.81 in 10.0 mi SSW 11.5 mph - N/A   Mostly Cloudy
10:53 AM 54.0 °F - 50.0 °F 86% 29.82 in 10.0 mi SSW 11.5 mph - N/A   Overcast
11:30 AM 53.6 °F - 50.0 °F 88% 29.82 in 10.0 mi SSW 9.2 mph - N/A   Overcast
11:45 AM 53.6 °F - 50.0 °F 88% 29.82 in 10.0 mi SSW 9.2 mph - N/A   Overcast
11:53 AM 53.1 °F - 51.1 °F 93% 29.83 in 10.0 mi SSW 9.2 mph - 0.00 in Rain Light Rain
12:01 PM 53.6 °F - 51.8 °F 94% 29.82 in 10.0 mi SSW 8.1 mph - 0.00 in Rain Light Rain
12:25 PM 53.6 °F - 51.8 °F 94% 29.82 in 10.0 mi SSW 11.5 mph - 0.01 in Rain Light Rain
12:38 PM 53.6 °F - 51.8 °F 94% 29.82 in 10.0 mi SSW 9.2 mph - 0.01 in Rain Light Rain
12:53 PM 53.1 °F - 51.1 °F 93% 29.83 in 10.0 mi SSW 11.5 mph - 0.01 in Rain Light Rain
1:06 PM 53.6 °F - 51.8 °F 94% 29.82 in 10.0 mi South 12.7 mph - 0.00 in   Overcast
1:12 PM 53.6 °F - 51.8 °F 94% 29.82 in 10.0 mi South 11.5 mph - 0.00 in   Overcast
1:53 PM 53.1 °F - 51.1 °F 93% 29.83 in 10.0 mi SSW 12.7 mph - 0.00 in   Overcast
2:53 PM 53.1 °F - 51.1 °F 93% 29.82 in 10.0 mi SSW 6.9 mph - 0.00 in   Overcast
3:25 PM 53.6 °F - 51.8 °F 94% 29.81 in 10.0 mi South 8.1 mph - N/A   Overcast
3:53 PM 54.0 °F - 50.0 °F 86% 29.81 in 10.0 mi SSW 6.9 mph - N/A   Overcast
4:53 PM 53.1 °F - 50.0 °F 89% 29.79 in 10.0 mi SSW 8.1 mph - N/A   Overcast
5:15 PM 51.8 °F - 50.0 °F 94% 29.78 in 6.0 mi SW 4.6 mph - 0.00 in Rain Light Rain
5:53 PM 53.1 °F - 48.9 °F 86% 29.78 in 10.0 mi Calm Calm - 0.00 in   Overcast
6:44 PM 53.6 °F - 48.2 °F 82% 29.76 in 10.0 mi Calm Calm - N/A   Overcast
6:53 PM 53.1 °F - 48.9 °F 86% 29.76 in 10.0 mi Calm Calm - N/A   Overcast
7:44 PM 51.8 °F - 51.8 °F 100% 29.76 in 8.0 mi SSW 6.9 mph - 0.01 in   Overcast
7:53 PM 52.0 °F - 51.1 °F 97% 29.76 in 5.0 mi SSW 3.5 mph - 0.01 in   Overcast
8:41 PM 51.8 °F - 51.8 °F 100% 29.74 in 5.0 mi Calm Calm - 0.01 in   Overcast
8:53 PM 51.1 °F - 51.1 °F 100% 29.75 in 9.0 mi Calm Calm - 0.01 in   Overcast
9:53 PM 51.1 °F - 51.1 °F 100% 29.74 in 10.0 mi Calm Calm - N/A   Overcast
10:02 PM 51.8 °F - 50.0 °F 94% 29.73 in 10.0 mi Calm Calm - N/A   Overcast
10:53 PM 51.1 °F - 51.1 °F 100% 29.74 in 10.0 mi Calm Calm - N/A   Overcast
11:04 PM 51.8 °F - 51.8 °F 100% 29.73 in 10.0 mi Calm Calm - N/A   Overcast
11:16 PM 51.8 °F - 51.8 °F 100% 29.73 in 10.0 mi Calm Calm - N/A   Overcast
11:53 PM 51.1 °F - 51.1 °F 100% 29.73 in 10.0 mi Calm Calm - N/A   Overcast